Location: Lane
(33.5226°N, 79.8788°W)
Time: 03:59:54
(UTC+00:00)

Tiros 1 despin weight - Pass Details

Date: 09 October 2022
Orbit: 590 x 637 km, 48.2° (Epoch: 30 November)

Event Time Altitude Azimuth Distance (km) Brightness Sun altitude
Rises 00:41:33 0° 312° (NW) 2,878 ? -23.1°
Reaches altitude 10° 00:43:55 10° 318° (NW) 1,980 ? -23.6°
Enters shadow 00:47:44 44° 9° (N) 857 ? -24.4°
Maximum altitude 00:48:19 47° 33° (NNE) 824 - -24.5°
Drops below altitude 10° 00:52:46 10° 108° (ESE) 2,001 - -25.4°
Sets 00:55:10 0° 114° (ESE) 2,912 - -25.9°
